sat.trackr.live / text

‹ back to catalog

STARLINK-3671

NORAD 51972 · 2022-025S

PAYLOAD ACTIVE UNKNOWN

§ Identity

Operator
Country
US
Launch date
2022-03-09
Launch site
AFETR
Launch vehicle
Mass (kg)
RCS (m²)

Purposes: comms

External: N2YO · Heavens-Above · Gunter

§ Orbital elements

Epoch: 2026-09-19T04:18:56.802240Z

Period
94.01 min
Inclination
53.1585°
Eccentricity
0.0001261
Mean motion
15.31701423 rev/d
Perigee alt
469.9 km
Apogee alt
471.6 km
Semi-major
6,848.9 km
B*
9.9342e-6
RAAN
216.9520°
Arg perigee
76.1885°
Mean anomaly
283.9257°
Rev number
25,047

§ Raw data

STARLINK-36711 51972U 22025S   26262.17982410 -.00000057  00000+0  99342-5 0  99992 51972  53.1585 216.9520 0001261  76.1885 283.9257 15.31701423250474

JSON: /api/v1/satellites/51972 · /tle

For live sub-satellite position, see the globe view (requires WebGL).

§ Visibility from observer

Set your observer location to see the next 7 days of passes ≥ 10°. The values pass through the URL so the page stays shareable.

No JS? Fill the form by hand. The geolocation button needs JavaScript.